"Pseudo-MPEC" for A10gICX

Created 2019 Oct 16 16:07:03 UT using Find_Orb

Click here for an explanation of pseudo-MPECs

 
 Astrometry: 
     A10gICX  C2019 10 09.61132910 10 11.76 +27 41 51.0    ~A9JM 19.51oVNEOCPT08
     A10gICX  C2019 10 09.61457510 10 09.01 +27 40 36.8    ~A9JM 19.43oVNEOCPT08
     A10gICX  C2019 10 09.62056510 10 04.21 +27 38 27.2    ~A9JM 19.69oVNEOCPT08
     A10gICX  C2019 10 09.63110810 09 55.50 +27 34 55.1    ~A9JM 19.44oVNEOCPT08

Station data:
(T08) ATLAS-MLO, Mauna Loa  (N19.535772 W155.576400)  US/Hawaii.  Observers
   L. Denneau, A. Heinze, H. Weiland, J. Tonry, H. Flewelling, A.
   Fitzsimmons, D. Young, B. Stalder. Measurers L. Denneau, A. Heinze, J.
   Tonry. 0.5-m f/2.0 Schmidt + CCD.

Orbital elements:  A10gICX
   Perihelion 2019 Nov 3.688777 TT = 16:31:50 (JD 2458791.188777)
Epoch 2019 Oct 10.0 TT = JDT 2458766.5   Earth MOID: 0.0083   AutoNEOCP
M 337.49281285                      (J2000 ecliptic)
n   0.91163637     Peri.  203.54695
a   1.05338780     Node   198.77338
e   0.0651922      Incl.    4.79479
P   1.08/394.89d   H   23.6     G   0.15   q 0.98471505  Q 1.12206055
From 4 observations 2019 Oct. 9 (28.5 min); mean residual 2".97
Residuals in arcseconds: 
191009 T08  .79+  4.6+    191009 T08  .03+  5.9-    
191009 T08  .97-  1.7-    191009 T08  .16+  3.1+    

Ephemerides (geocentric):
Date (UTC) HH   RA              Dec         delta   r     elong  mag
---- -- -- --  -------------   -----------  ------ ------ -----  ---
2019 10 16 16  09 17 51.778   -07 13 55.77  .01864 .98796  60.9 19.6
2019 10 16 17  09 17 40.933   -07 22 20.30  .01868 .98795  61.0 19.6
2019 10 16 18  09 17 30.146   -07 30 42.35  .01873 .98793  61.0 19.6
2019 10 16 19  09 17 19.416   -07 39 01.93  .01877 .98792  61.1 19.6
2019 10 16 20  09 17 08.743   -07 47 19.05  .01882 .98790  61.2 19.6
2019 10 16 21  09 16 58.127   -07 55 33.72  .01887 .98789  61.2 19.6
2019 10 16 22  09 16 47.567   -08 03 45.97  .01891 .98788  61.3 19.6
2019 10 16 23  09 16 37.063   -08 11 55.79  .01896 .98786  61.4 19.6
2019 10 17 00  09 16 26.614   -08 20 03.20  .01901 .98785  61.4 19.6
2019 10 17 01  09 16 16.221   -08 28 08.22  .01906 .98783  61.5 19.6
2019 10 17 02  09 16 05.882   -08 36 10.85  .01910 .98782  61.6 19.6
2019 10 17 03  09 15 55.598   -08 44 11.11  .01915 .98781  61.6 19.6
2019 10 17 04  09 15 45.369   -08 52 09.01  .01920 .98779  61.7 19.6
2019 10 17 05  09 15 35.193   -09 00 04.57  .01924 .98778  61.8 19.6
2019 10 17 06  09 15 25.071   -09 07 57.78  .01929 .98777  61.8 19.6
2019 10 17 07  09 15 15.002   -09 15 48.67  .01934 .98775  61.9 19.6
2019 10 17 08  09 15 04.986   -09 23 37.25  .01939 .98774  62.0 19.6
2019 10 17 09  09 14 55.023   -09 31 23.54  .01944 .98772  62.0 19.6
2019 10 17 10  09 14 45.111   -09 39 07.53  .01948 .98771  62.1 19.6
2019 10 17 11  09 14 35.252   -09 46 49.25  .01953 .98770  62.2 19.6
2019 10 17 12  09 14 25.444   -09 54 28.70  .01958 .98768  62.2 19.6
2019 10 17 13  09 14 15.688   -10 02 05.90  .01963 .98767  62.3 19.6
2019 10 17 14  09 14 05.983   -10 09 40.86  .01968 .98766  62.4 19.6
2019 10 17 15  09 13 56.328   -10 17 13.60  .01972 .98764  62.4 19.6
2019 10 17 16  09 13 46.724   -10 24 44.12  .01977 .98763  62.5 19.6
2019 10 17 17  09 13 37.169   -10 32 12.44  .01982 .98762  62.5 19.6
2019 10 17 18  09 13 27.665   -10 39 38.56  .01987 .98760  62.6 19.6
2019 10 17 19  09 13 18.210   -10 47 02.50  .01992 .98759  62.7 19.6
2019 10 17 20  09 13 08.804   -10 54 24.28  .01997 .98758  62.7 19.6
2019 10 17 21  09 12 59.447   -11 01 43.90  .02002 .98756  62.8 19.6
2019 10 17 22  09 12 50.138   -11 09 01.38  .02007 .98755  62.9 19.6
2019 10 17 23  09 12 40.878   -11 16 16.72  .02012 .98754  62.9 19.6
2019 10 18 00  09 12 31.666   -11 23 29.94  .02016 .98752  63.0 19.6
2019 10 18 01  09 12 22.501   -11 30 41.06  .02021 .98751  63.1 19.6
2019 10 18 02  09 12 13.384   -11 37 50.07  .02026 .98750  63.1 19.6
2019 10 18 03  09 12 04.314   -11 44 57.00  .02031 .98748  63.2 19.6
2019 10 18 04  09 11 55.291   -11 52 01.86  .02036 .98747  63.2 19.6
2019 10 18 05  09 11 46.314   -11 59 04.65  .02041 .98746  63.3 19.6
2019 10 18 06  09 11 37.383   -12 06 05.39  .02046 .98745  63.4 19.6
2019 10 18 07  09 11 28.499   -12 13 04.10  .02051 .98743  63.4 19.6
2019 10 18 08  09 11 19.660   -12 20 00.77  .02056 .98742  63.5 19.6
2019 10 18 09  09 11 10.867   -12 26 55.43  .02061 .98741  63.6 19.6
2019 10 18 10  09 11 02.118   -12 33 48.09  .02066 .98739  63.6 19.6
2019 10 18 11  09 10 53.415   -12 40 38.75  .02071 .98738  63.7 19.6
2019 10 18 12  09 10 44.756   -12 47 27.43  .02076 .98737  63.7 19.6
2019 10 18 13  09 10 36.142   -12 54 14.13  .02081 .98736  63.8 19.6
2019 10 18 14  09 10 27.571   -13 00 58.88  .02086 .98734  63.9 19.6
2019 10 18 15  09 10 19.045   -13 07 41.68  .02091 .98733  63.9 19.6